,,,PA_Meas_PMT16A,,PR_Meas_QMR101_102,,RH_Meas_QMH101,,SR_Meas_QMS101,,TA_Meas_QMH101,,GenWind,,GenWind,
date,time,status,PA,status,PR,status,RH,status,SR,status,TA,status,DirAvg,status,SpdAvg,
2010-08-24, 00:00:04,VALID,1009.33,VALID,0,VALID,101.491,VALID,0,VALID,25.8751,VALID,353,VALID,0,
2010-08-24, 00:01:04,VALID,1009.34,VALID,0,VALID,101.506,VALID,0,VALID,25.8751,VALID,353,VALID,0,
2010-08-24, 00:02:04,VALID,1009.31,VALID,0,VALID,101.506,VALID,0,VALID,25.8751,VALID,353,VALID,0,
2010-08-24, 00:03:04,VALID,1009.33,VALID,0,VALID,101.552,VALID,0,VALID,25.8751,VALID,353,VALID,0,
2010-08-24, 00:04:04,VALID,1009.34,VALID,0,VALID,101.613,VALID,0,VALID,25.8946,VALID,353,VALID,0,
2010-08-24, 00:05:04,VALID,1009.35,VALID,0,VALID,101.636,VALID,0,VALID,25.8966,VALID,353,VALID,0,
2010-08-24, 00:06:04,VALID,1009.32,VALID,0,VALID,101.552,VALID,0,VALID,25.8771,VALID,353,VALID,0,
2010-08-24, 00:07:04,VALID,1009.31,VALID,0,VALID,101.552,VALID,0,VALID,25.8556,VALID,353,VALID,0.335156,
2010-08-24, 00:08:04,VALID,1009.32,VALID,0,VALID,101.567,VALID,0,VALID,25.8576,VALID,353,VALID,0.185937,
2010-08-24, 00:09:04,VALID,1009.28,VALID,0,VALID,101.682,VALID,0,VALID,25.8166,VALID,353,VALID,0.317969,
2010-08-24, 00:10:04,VALID,1009.31,VALID,0,VALID,101.705,VALID,0,VALID,25.8166,VALID,353,VALID,0.318359,
2010-08-24, 00:11:04,VALID,1009.26,VALID,0,VALID,101.712,VALID,0,VALID,25.7971,VALID,353,VALID,0.233594,
2010-08-24, 00:12:04,VALID,1009.26,VALID,0,VALID,101.758,VALID,0,VALID,25.7971,VALID,353,VALID,0.291797,
2010-08-24, 00:13:04,VALID,1009.27,VALID,0,VALID,101.789,VALID,0,VALID,25.7991,VALID,353,VALID,0,
2010-08-24, 00:14:04,VALID,1009.24,VALID,0,VALID,101.811,VALID,0,VALID,25.7581,VALID,353,VALID,0.326953,
2010-08-24, 00:15:04,VALID,1009.24,VALID,0,VALID,101.895,VALID,0,VALID,25.7581,VALID,353,VALID,0.387891,
2010-08-24, 00:16:04,VALID,1009.22,VALID,0,VALID,101.979,VALID,0,VALID,25.7406,VALID,353,VALID,0.247656,
2010-08-24, 00:17:04,VALID,1009.22,VALID,0,VALID,102.017,VALID,0,VALID,25.7406,VALID,353,VALID,0.107422,
2010-08-24, 00:18:04,VALID,1009.24,VALID,0,VALID,102.086,VALID,0,VALID,25.7192,VALID,353,VALID,0,
2010-08-24, 00:19:04,VALID,1009.2,VALID,0,VALID,102.101,VALID,0,VALID,25.7406,VALID,353,VALID,0,
2010-08-24, 00:20:04,VALID,1009.18,VALID,0,VALID,102.147,VALID,0,VALID,25.7016,VALID,353,VALID,0,
2010-08-24, 00:21:04,VALID,1009.17,VALID,0,VALID,102.185,VALID,0,VALID,25.6997,VALID,353,VALID,0,
2010-08-24, 00:22:04,VALID,1009.16,VALID,0,VALID,102.216,VALID,0,VALID,25.7016,VALID,353,VALID,0,
2010-08-24, 00:23:04,VALID,1009.14,VALID,0,VALID,102.254,VALID,0,VALID,25.6997,VALID,353,VALID,0,
2010-08-24, 00:24:04,VALID,1009.12,VALID,0,VALID,102.277,VALID,0,VALID,25.6802,VALID,353,VALID,0,
2010-08-24, 00:25:04,VALID,1009.11,VALID,0,VALID,102.307,VALID,0,VALID,25.7016,VALID,353,VALID,0,
2010-08-24, 00:26:04,VALID,1009.12,VALID,0,VALID,102.299,VALID,0,VALID,25.7016,VALID,353,VALID,0,
2010-08-24, 00:27:04,VALID,1009.11,VALID,0,VALID,102.284,VALID,0.105969,VALID,25.6802,VALID,353,VALID,0,
2010-08-24, 00:28:04,VALID,1009.11,VALID,0,VALID,102.307,VALID,0,VALID,25.6821,VALID,353,VALID,0,
2010-08-24, 00:29:04,VALID,1009.09,VALID,0,VALID,102.322,VALID,0,VALID,25.6802,VALID,353,VALID,0,
2010-08-24, 00:30:04,VALID,1009.06,VALID,0,VALID,102.299,VALID,0,VALID,25.6821,VALID,353,VALID,0,
2010-08-24, 00:31:04,VALID,1009.05,VALID,0,VALID,102.307,VALID,0,VALID,25.6607,VALID,353,VALID,0,
2010-08-24, 00:32:04,VALID,1009.02,VALID,0,VALID,102.269,VALID,0,VALID,25.6821,VALID,353,VALID,0,
2010-08-24, 00:33:04,VALID,1008.98,VALID,0,VALID,102.254,VALID,0,VALID,25.6821,VALID,353,VALID,0,
2010-08-24, 00:34:04,VALID,1008.97,VALID,0,VALID,102.254,VALID,0,VALID,25.6802,VALID,353,VALID,0,
2010-08-24, 00:35:04,VALID,1008.98,VALID,0,VALID,102.254,VALID,0,VALID,25.7016,VALID,353,VALID,0,
2010-08-24, 00:36:04,VALID,1008.97,VALID,0,VALID,102.238,VALID,0,VALID,25.6802,VALID,353,VALID,0,
2010-08-24, 00:37:04,VALID,1008.96,VALID,0,VALID,102.231,VALID,0,VALID,25.6802,VALID,353,VALID,0,
2010-08-24, 00:38:04,VALID,1008.96,VALID,0,VALID,102.223,VALID,0,VALID,25.7016,VALID,353,VALID,0,
2010-08-24, 00:39:04,VALID,1008.95,VALID,0,VALID,102.216,VALID,0,VALID,25.6802,VALID,353,VALID,0,
2010-08-24, 00:40:04,VALID,1008.98,VALID,0,VALID,102.216,VALID,0,VALID,25.6997,VALID,353,VALID,0,
2010-08-24, 00:41:04,VALID,1008.94,VALID,0,VALID,102.269,VALID,0,VALID,25.7211,VALID,353,VALID,0,
2010-08-24, 00:42:04,VALID,1008.91,VALID,0,VALID,102.277,VALID,0.105969,VALID,25.6997,VALID,353,VALID,0,
2010-08-24, 00:43:04,VALID,1008.89,VALID,0,VALID,102.277,VALID,0,VALID,25.6997,VALID,353,VALID,0,
2010-08-24, 00:44:04,VALID,1008.87,VALID,0,VALID,102.254,VALID,0.105969,VALID,25.7406,VALID,353,VALID,0,
2010-08-24, 00:45:04,VALID,1008.87,VALID,0,VALID,102.216,VALID,0,VALID,25.7192,VALID,353,VALID,0,
2010-08-24, 00:46:04,VALID,1008.84,VALID,0,VALID,102.193,VALID,0,VALID,25.6997,VALID,353,VALID,0,
2010-08-24, 00:47:04,VALID,1008.83,VALID,0,VALID,102.193,VALID,0,VALID,25.6997,VALID,353,VALID,0,
2010-08-24, 00:48:04,VALID,1008.8,VALID,0,VALID,102.162,VALID,0,VALID,25.6997,VALID,353,VALID,0,
2010-08-24, 00:49:04,VALID,1008.78,VALID,0,VALID,102.147,VALID,0.105969,VALID,25.6997,VALID,353,VALID,0,
2010-08-24, 00:50:04,VALID,1008.79,VALID,0,VALID,102.17,VALID,0.105969,VALID,25.6997,VALID,353,VALID,0,
2010-08-24, 00:51:04,VALID,1008.81,VALID,0,VALID,102.208,VALID,0,VALID,25.6997,VALID,353,VALID,0,
2010-08-24, 00:52:04,VALID,1008.79,VALID,0,VALID,102.216,VALID,0.105969,VALID,25.7016,VALID,353,VALID,0,
2010-08-24, 00:53:04,VALID,1008.79,VALID,0,VALID,102.231,VALID,0.105969,VALID,25.6802,VALID,353,VALID,0,
2010-08-24, 00:54:04,VALID,1008.76,VALID,0,VALID,102.231,VALID,0,VALID,25.7016,VALID,353,VALID,0,
2010-08-24, 00:55:04,VALID,1008.75,VALID,0,VALID,102.231,VALID,0.105969,VALID,25.6802,VALID,353,VALID,0,
2010-08-24, 00:56:04,VALID,1008.76,VALID,0,VALID,102.269,VALID,0,VALID,25.6802,VALID,353,VALID,0,
2010-08-24, 00:57:04,VALID,1008.76,VALID,0,VALID,102.261,VALID,0,VALID,25.6607,VALID,353,VALID,0,
2010-08-24, 00:58:04,VALID,1008.76,VALID,0,VALID,102.277,VALID,0,VALID,25.6412,VALID,353,VALID,0,
2010-08-24, 00:59:04,VALID,1008.75,VALID,0,VALID,102.261,VALID,0,VALID,25.6412,VALID,353,VALID,0,
2010-08-24, 01:00:04,VALID,1008.76,VALID,0,VALID,102.254,VALID,0,VALID,25.6431,VALID,353,VALID,0,
2010-08-24, 01:01:04,VALID,1008.76,VALID,0,VALID,102.254,VALID,0,VALID,25.6217,VALID,353,VALID,0,
2010-08-24, 01:02:04,VALID,1008.8,VALID,0,VALID,102.284,VALID,0.105969,VALID,25.6217,VALID,353,VALID,0,
2010-08-24, 01:03:04,VALID,1008.79,VALID,0,VALID,102.307,VALID,0,VALID,25.6217,VALID,353,VALID,0,
2010-08-24, 01:04:04,VALID,1008.8,VALID,0,VALID,102.299,VALID,0,VALID,25.6431,VALID,353,VALID,0,
2010-08-24, 01:05:04,VALID,1008.76,VALID,0,VALID,102.284,VALID,0,VALID,25.6431,VALID,353,VALID,0,
2010-08-24, 01:06:04,VALID,1008.73,VALID,0,VALID,102.254,VALID,0,VALID,25.6217,VALID,353,VALID,0,
2010-08-24, 01:07:04,VALID,1008.71,VALID,0,VALID,102.254,VALID,0,VALID,25.6217,VALID,353,VALID,0,
2010-08-24, 01:08:04,VALID,1008.67,VALID,0,VALID,102.269,VALID,0,VALID,25.6022,VALID,353,VALID,0,
2010-08-24, 01:09:04,VALID,1008.71,VALID,0,VALID,102.269,VALID,0,VALID,25.6236,VALID,353,VALID,0,
2010-08-24, 01:10:04,VALID,1008.69,VALID,0,VALID,102.299,VALID,0,VALID,25.6236,VALID,353,VALID,0,
2010-08-24, 01:11:04,VALID,1008.7,VALID,0,VALID,102.307,VALID,0,VALID,25.6217,VALID,353,VALID,0,
2010-08-24, 01:12:04,VALID,1008.68,VALID,0,VALID,102.33,VALID,0,VALID,25.6217,VALID,353,VALID,0,
2010-08-24, 01:13:04,VALID,1008.71,VALID,0,VALID,102.315,VALID,0,VALID,25.6217,VALID,353,VALID,0,
2010-08-24, 01:14:04,VALID,1008.71,VALID,0,VALID,102.277,VALID,0,VALID,25.6431,VALID,353,VALID,0,
2010-08-24, 01:15:04,VALID,1008.74,VALID,0,VALID,102.246,VALID,0,VALID,25.6431,VALID,353,VALID,0,
2010-08-24, 01:16:04,VALID,1008.74,VALID,0,VALID,102.216,VALID,0,VALID,25.6412,VALID,353,VALID,0,
2010-08-24, 01:17:04,VALID,1008.75,VALID,0,VALID,102.155,VALID,0.105969,VALID,25.6412,VALID,353,VALID,0.237109,
2010-08-24, 01:18:04,VALID,1008.73,VALID,0,VALID,102.094,VALID,0.105969,VALID,25.6217,VALID,353,VALID,0.337891,
2010-08-24, 01:19:04,VALID,1008.76,VALID,0,VALID,102.094,VALID,0.105969,VALID,25.6431,VALID,353,VALID,0.255469,
2010-08-24, 01:20:04,VALID,1008.75,VALID,0,VALID,102.139,VALID,0,VALID,25.6041,VALID,353,VALID,0,
2010-08-24, 01:21:04,VALID,1008.75,VALID,0,VALID,102.17,VALID,0,VALID,25.5846,VALID,353,VALID,0.372656,
2010-08-24, 01:22:04,VALID,1008.76,VALID,0,VALID,102.193,VALID,0,VALID,25.5866,VALID,353,VALID,0.343359,
2010-08-24, 01:23:04,VALID,1008.74,VALID,0,VALID,102.223,VALID,0,VALID,25.5456,VALID,353,VALID,0.396484,
2010-08-24, 01:24:04,VALID,1008.73,VALID,0,VALID,102.223,VALID,0,VALID,25.5671,VALID,353,VALID,0.375,
2010-08-24, 01:25:04,VALID,1008.74,VALID,0,VALID,102.254,VALID,0,VALID,25.5066,VALID,353,VALID,0.229687,
2010-08-24, 01:26:04,VALID,1008.72,VALID,0,VALID,102.277,VALID,0,VALID,25.5281,VALID,4,VALID,0.411719,
2010-08-24, 01:27:04,VALID,1008.71,VALID,0,VALID,102.33,VALID,0,VALID,25.4871,VALID,19,VALID,0.367188,
2010-08-24, 01:28:04,VALID,1008.65,VALID,0,VALID,102.36,VALID,0,VALID,25.4891,VALID,19,VALID,0.289063,
2010-08-24, 01:29:04,VALID,1008.65,VALID,0,VALID,102.383,VALID,0,VALID,25.4696,VALID,19,VALID,0.339453,
2010-08-24, 01:30:04,VALID,1008.68,VALID,0,VALID,102.437,VALID,0,VALID,25.4482,VALID,19,VALID,0,
2010-08-24, 01:31:04,VALID,1008.65,VALID,0,VALID,102.505,VALID,0,VALID,25.4482,VALID,19,VALID,0,
2010-08-24, 01:32:04,VALID,1008.63,VALID,0,VALID,102.536,VALID,0,VALID,25.4287,VALID,19,VALID,0,
2010-08-24, 01:33:04,VALID,1008.65,VALID,0,VALID,102.559,VALID,0,VALID,25.4287,VALID,19,VALID,0,
2010-08-24, 01:34:04,VALID,1008.59,VALID,0,VALID,102.597,VALID,0,VALID,25.4287,VALID,19,VALID,0,
2010-08-24, 01:35:04,VALID,1008.57,VALID,0,VALID,102.643,VALID,0,VALID,25.4267,VALID,71,VALID,0.593359,
2010-08-24, 01:36:04,VALID,1008.59,VALID,0,VALID,102.658,VALID,0,VALID,25.4871,VALID,72,VALID,0.536719,
2010-08-24, 01:37:04,VALID,1008.59,VALID,0,VALID,102.681,VALID,0,VALID,25.4462,VALID,73,VALID,0.303516,
2010-08-24, 01:38:04,VALID,1008.59,VALID,0,VALID,102.704,VALID,0.105969,VALID,25.4677,VALID,73,VALID,0.520703,
2010-08-24, 01:39:04,VALID,1008.59,VALID,0,VALID,102.696,VALID,0,VALID,25.4657,VALID,73,VALID,0.333203,
2010-08-24, 01:40:04,VALID,1008.58,VALID,0,VALID,102.688,VALID,0.105969,VALID,25.5066,VALID,73,VALID,0.291797,
2010-08-24, 01:41:04,VALID,1008.54,VALID,0,VALID,102.688,VALID,0.105969,VALID,25.5047,VALID,73,VALID,0.380469,
2010-08-24, 01:42:04,VALID,1008.54,VALID,0,VALID,102.673,VALID,0,VALID,25.5261,VALID,73,VALID,0.455859,
2010-08-24, 01:43:04,VALID,1008.51,VALID,0,VALID,102.635,VALID,0.105969,VALID,25.5047,VALID,81,VALID,0.790234,
2010-08-24, 01:44:04,VALID,1008.49,VALID,0,VALID,102.62,VALID,0,VALID,25.5261,VALID,83,VALID,0.541797,
2010-08-24, 01:45:04,VALID,1008.48,VALID,0,VALID,102.574,VALID,0,VALID,25.5456,VALID,83,VALID,0.523828,
2010-08-24, 01:46:04,VALID,1008.47,VALID,0,VALID,102.536,VALID,0,VALID,25.5456,VALID,83,VALID,0.287891,
2010-08-24, 01:47:04,VALID,1008.47,VALID,0,VALID,102.49,VALID,0,VALID,25.5242,VALID,83,VALID,0,
2010-08-24, 01:48:04,VALID,1008.46,VALID,0,VALID,102.429,VALID,0,VALID,25.5437,VALID,83,VALID,0.00273437,
2010-08-24, 01:49:04,VALID,1008.51,VALID,0,VALID,102.406,VALID,0.105969,VALID,25.5437,VALID,83,VALID,0.0121094,
2010-08-24, 01:50:04,VALID,1008.5,VALID,0,VALID,102.376,VALID,0.105969,VALID,25.5632,VALID,83,VALID,0,
2010-08-24, 01:51:04,VALID,1008.51,VALID,0,VALID,102.376,VALID,0.105969,VALID,25.5632,VALID,83,VALID,0,
2010-08-24, 01:52:04,VALID,1008.51,VALID,0,VALID,102.307,VALID,0.105969,VALID,25.5632,VALID,83,VALID,0,
2010-08-24, 01:53:04,VALID,1008.5,VALID,0,VALID,102.246,VALID,0,VALID,25.5632,VALID,83,VALID,0.166406,
2010-08-24, 01:54:04,VALID,1008.48,VALID,0,VALID,102.193,VALID,0,VALID,25.5827,VALID,83,VALID,0.349609,
2010-08-24, 01:55:04,VALID,1008.45,VALID,0,VALID,102.094,VALID,0,VALID,25.5632,VALID,83,VALID,0.364844,
2010-08-24, 01:56:04,VALID,1008.46,VALID,0,VALID,101.987,VALID,0,VALID,25.5651,VALID,83,VALID,0.419922,
2010-08-24, 01:57:04,VALID,1008.45,VALID,0,VALID,101.933,VALID,0,VALID,25.5437,VALID,153,VALID,0.703906,
2010-08-24, 01:58:04,VALID,1008.42,VALID,0,VALID,101.933,VALID,0,VALID,25.5242,VALID,153,VALID,0.467578,
2010-08-24, 01:59:04,VALID,1008.39,VALID,0,VALID,101.918,VALID,0,VALID,25.5242,VALID,152,VALID,0.480078,
2010-08-24, 02:00:04,VALID,1008.35,VALID,0,VALID,101.933,VALID,0,VALID,25.5437,VALID,152,VALID,0.402344,
2010-08-24, 02:01:04,VALID,1008.36,VALID,0,VALID,101.911,VALID,0,VALID,25.5437,VALID,152,VALID,0.332812,
2010-08-24, 02:02:04,VALID,1008.34,VALID,0,VALID,101.911,VALID,0,VALID,25.5651,VALID,152,VALID,0.455469,
2010-08-24, 02:03:04,VALID,1008.33,VALID,0,VALID,101.88,VALID,0,VALID,25.5437,VALID,152,VALID,0.274219,
2010-08-24, 02:04:04,VALID,1008.31,VALID,0,VALID,101.865,VALID,0.105969,VALID,25.5651,VALID,152,VALID,0.384766,
2010-08-24, 02:05:04,VALID,1008.32,VALID,0,VALID,101.842,VALID,0.105969,VALID,25.5632,VALID,152,VALID,0,
2010-08-24, 02:06:04,VALID,1008.31,VALID,0,VALID,101.834,VALID,0.105969,VALID,25.5846,VALID,125,VALID,0,
2010-08-24, 02:07:04,VALID,1008.34,VALID,0,VALID,101.827,VALID,0,VALID,25.5846,VALID,125,VALID,0,
2010-08-24, 02:08:04,VALID,1008.33,VALID,0,VALID,101.834,VALID,0,VALID,25.5632,VALID,125,VALID,0,
2010-08-24, 02:09:04,VALID,1008.36,VALID,0,VALID,101.819,VALID,0,VALID,25.6041,VALID,125,VALID,0.340234,
2010-08-24, 02:10:04,VALID,1008.33,VALID,0,VALID,101.827,VALID,0,VALID,25.5827,VALID,125,VALID,0.380469,
2010-08-24, 02:11:04,VALID,1008.36,VALID,0,VALID,101.766,VALID,0,VALID,25.6022,VALID,125,VALID,0.244141,
2010-08-24, 02:12:04,VALID,1008.28,VALID,0,VALID,101.735,VALID,0.105969,VALID,25.6217,VALID,125,VALID,0.0738281,
2010-08-24, 02:13:04,VALID,1008.32,VALID,0,VALID,101.712,VALID,0,VALID,25.6431,VALID,118,VALID,0.316406,
2010-08-24, 02:14:05,VALID,1008.3,VALID,0,VALID,101.651,VALID,0,VALID,25.6236,VALID,39,VALID,0.475781,
2010-08-24, 02:15:05,VALID,1008.31,VALID,0,VALID,101.659,VALID,0.105969,VALID,25.5827,VALID,39,VALID,0.2875,
2010-08-24, 02:16:05,VALID,1008.3,VALID,0,VALID,101.689,VALID,0,VALID,25.5632,VALID,39,VALID,0.296094,
2010-08-24, 02:17:05,VALID,1008.31,VALID,0,VALID,101.735,VALID,0,VALID,25.5632,VALID,39,VALID,0.258203,
2010-08-24, 02:18:05,VALID,1008.32,VALID,0,VALID,101.789,VALID,0,VALID,25.5456,VALID,40,VALID,0.182422,
2010-08-24, 02:19:05,VALID,1008.32,VALID,0,VALID,101.827,VALID,0.105969,VALID,25.5047,VALID,39,VALID,0.103516,
2010-08-24, 02:20:05,VALID,1008.29,VALID,0,VALID,101.85,VALID,0.105969,VALID,25.5047,VALID,39,VALID,0.145703,
2010-08-24, 02:21:05,VALID,1008.26,VALID,0,VALID,101.865,VALID,0.105969,VALID,25.5047,VALID,39,VALID,0.0265625,
2010-08-24, 02:22:05,VALID,1008.24,VALID,0,VALID,101.872,VALID,0,VALID,25.4852,VALID,39,VALID,0,
2010-08-24, 02:23:05,VALID,1008.21,VALID,0,VALID,101.933,VALID,0,VALID,25.5066,VALID,40,VALID,0,
2010-08-24, 02:24:05,VALID,1008.19,VALID,0,VALID,101.941,VALID,0.105969,VALID,25.4657,VALID,39,VALID,0,
2010-08-24, 02:25:05,VALID,1008.18,VALID,0,VALID,102.002,VALID,0,VALID,25.4677,VALID,39,VALID,0,
2010-08-24, 02:26:05,VALID,1008.17,VALID,0,VALID,101.994,VALID,0,VALID,25.4482,VALID,39,VALID,0,
2010-08-24, 02:27:05,VALID,1008.15,VALID,0,VALID,102.025,VALID,0,VALID,25.4482,VALID,39,VALID,0,
2010-08-24, 02:28:05,VALID,1008.16,VALID,0,VALID,102.078,VALID,0,VALID,25.4462,VALID,39,VALID,0,
2010-08-24, 02:29:05,VALID,1008.17,VALID,0,VALID,102.124,VALID,0,VALID,25.4482,VALID,39,VALID,0,
2010-08-24, 02:30:05,VALID,1008.14,VALID,0,VALID,102.155,VALID,0,VALID,25.4482,VALID,39,VALID,0,
2010-08-24, 02:31:05,VALID,1008.15,VALID,0,VALID,102.162,VALID,0,VALID,25.4092,VALID,40,VALID,0,
2010-08-24, 02:32:05,VALID,1008.15,VALID,0,VALID,102.177,VALID,0,VALID,25.3877,VALID,39,VALID,0,
2010-08-24, 02:33:05,VALID,1008.16,VALID,0,VALID,102.208,VALID,0,VALID,25.3702,VALID,39,VALID,0,
2010-08-24, 02:34:05,VALID,1008.17,VALID,0,VALID,102.254,VALID,0.105969,VALID,25.3507,VALID,39,VALID,0,
2010-08-24, 02:35:05,VALID,1008.2,VALID,0,VALID,102.338,VALID,0,VALID,25.3312,VALID,39,VALID,0,
2010-08-24, 02:36:05,VALID,1008.23,VALID,0,VALID,102.399,VALID,0,VALID,25.2903,VALID,39,VALID,0,
2010-08-24, 02:37:05,VALID,1008.24,VALID,0,VALID,102.444,VALID,0,VALID,25.3117,VALID,39,VALID,0,
2010-08-24, 02:38:05,VALID,1008.22,VALID,0,VALID,102.544,VALID,0,VALID,25.3117,VALID,39,VALID,0,
2010-08-24, 02:39:05,VALID,1008.23,VALID,0,VALID,102.597,VALID,0,VALID,25.3117,VALID,39,VALID,0,
2010-08-24, 02:40:05,VALID,1008.21,VALID,0,VALID,102.627,VALID,0,VALID,25.3312,VALID,115,VALID,0.586328,
2010-08-24, 02:41:05,VALID,1008.23,VALID,0,VALID,102.627,VALID,0,VALID,25.3702,VALID,127,VALID,0.725391,
2010-08-24, 02:42:05,VALID,1008.23,VALID,0,VALID,102.582,VALID,0,VALID,25.3897,VALID,130,VALID,0.922656,
2010-08-24, 02:43:05,VALID,1008.24,VALID,0,VALID,102.49,VALID,0,VALID,25.4287,VALID,134,VALID,0.747656,
2010-08-24, 02:44:05,VALID,1008.21,VALID,0,VALID,102.368,VALID,0,VALID,25.4287,VALID,150,VALID,0.575,
2010-08-24, 02:45:05,VALID,1008.21,VALID,0,VALID,102.238,VALID,0.105969,VALID,25.4482,VALID,143,VALID,0.644141,
2010-08-24, 02:46:05,VALID,1008.21,VALID,0,VALID,102.116,VALID,0,VALID,25.4696,VALID,143,VALID,0.714063,
2010-08-24, 02:47:05,VALID,1008.2,VALID,0,VALID,102.002,VALID,0.105969,VALID,25.4482,VALID,131,VALID,0.442578,
2010-08-24, 02:48:05,VALID,1008.15,VALID,0,VALID,101.895,VALID,0,VALID,25.4482,VALID,132,VALID,0.0433594,
2010-08-24, 02:49:05,VALID,1008.16,VALID,0,VALID,101.796,VALID,0,VALID,25.4482,VALID,132,VALID,0,
2010-08-24, 02:50:05,VALID,1008.13,VALID,0,VALID,101.758,VALID,0,VALID,25.4677,VALID,133,VALID,0,
2010-08-24, 02:51:05,VALID,1008.12,VALID,0,VALID,101.674,VALID,0,VALID,25.4462,VALID,133,VALID,0.153906,
2010-08-24, 02:52:05,VALID,1008.12,VALID,0,VALID,101.56,VALID,0,VALID,25.4677,VALID,133,VALID,0,
2010-08-24, 02:53:05,VALID,1008.12,VALID,0,VALID,101.484,VALID,0,VALID,25.5066,VALID,133,VALID,0.111719,
2010-08-24, 02:54:05,VALID,1008.15,VALID,0,VALID,101.461,VALID,0.105969,VALID,25.5066,VALID,133,VALID,0,
2010-08-24, 02:55:05,VALID,1008.19,VALID,0,VALID,101.43,VALID,0.105969,VALID,25.5066,VALID,133,VALID,0.146094,
2010-08-24, 02:56:05,VALID,1008.2,VALID,0,VALID,101.4,VALID,0,VALID,25.5047,VALID,133,VALID,0.117969,
2010-08-24, 02:57:05,VALID,1008.25,VALID,0,VALID,101.339,VALID,0,VALID,25.5456,VALID,133,VALID,0,
2010-08-24, 02:58:05,VALID,1008.29,VALID,0,VALID,101.262,VALID,0,VALID,25.5261,VALID,133,VALID,0.003125,
2010-08-24, 02:59:05,VALID,1008.32,VALID,0,VALID,101.201,VALID,0,VALID,25.5456,VALID,133,VALID,0,
2010-08-24, 03:00:05,VALID,1008.32,VALID,0,VALID,101.133,VALID,0,VALID,25.5456,VALID,133,VALID,0,
2010-08-24, 03:01:05,VALID,1008.35,VALID,0,VALID,101.095,VALID,0,VALID,25.5456,VALID,132,VALID,0,
2010-08-24, 03:02:05,VALID,1008.34,VALID,0,VALID,101.041,VALID,0,VALID,25.5456,VALID,132,VALID,0,
2010-08-24, 03:03:05,VALID,1008.34,VALID,0,VALID,100.98,VALID,0,VALID,25.5261,VALID,132,VALID,0,
2010-08-24, 03:04:05,VALID,1008.35,VALID,0,VALID,100.988,VALID,0,VALID,25.5456,VALID,133,VALID,0,
2010-08-24, 03:05:05,VALID,1008.32,VALID,0,VALID,101.117,VALID,0,VALID,25.5261,VALID,84,VALID,0,
2010-08-24, 03:06:05,VALID,1008.3,VALID,0,VALID,101.301,VALID,0,VALID,25.5066,VALID,43,VALID,0,
2010-08-24, 03:07:05,VALID,1008.28,VALID,0,VALID,101.499,VALID,0,VALID,25.4677,VALID,43,VALID,0,
2010-08-24, 03:08:05,VALID,1008.29,VALID,0,VALID,101.56,VALID,0,VALID,25.4287,VALID,43,VALID,0,
2010-08-24, 03:09:05,VALID,1008.33,VALID,0,VALID,101.667,VALID,0,VALID,25.3702,VALID,39,VALID,0,
2010-08-24, 03:10:05,VALID,1008.37,VALID,0,VALID,101.758,VALID,0,VALID,25.3312,VALID,39,VALID,0,
2010-08-24, 03:11:05,VALID,1008.37,VALID,0,VALID,101.888,VALID,0,VALID,25.2922,VALID,32,VALID,0.498047,
2010-08-24, 03:12:05,VALID,1008.42,VALID,0,VALID,101.941,VALID,0,VALID,25.2727,VALID,30,VALID,0.696875,
2010-08-24, 03:13:05,VALID,1008.46,VALID,0,VALID,102.04,VALID,0,VALID,25.2337,VALID,6,VALID,0.679688,
2010-08-24, 03:14:05,VALID,1008.49,VALID,0,VALID,102.078,VALID,0,VALID,25.2142,VALID,360,VALID,0.786719,
2010-08-24, 03:15:05,VALID,1008.51,VALID,0,VALID,102.132,VALID,0,VALID,25.1947,VALID,360,VALID,0.566797,
2010-08-24, 03:16:05,VALID,1008.51,VALID,0,VALID,102.177,VALID,0,VALID,25.1557,VALID,3,VALID,0.514453,
2010-08-24, 03:17:05,VALID,1008.5,VALID,0,VALID,102.223,VALID,0,VALID,25.1557,VALID,20,VALID,0.348828,
2010-08-24, 03:18:05,VALID,1008.51,VALID,0,VALID,102.231,VALID,0,VALID,25.1362,VALID,20,VALID,0.261328,
2010-08-24, 03:19:05,VALID,1008.54,VALID,0,VALID,102.269,VALID,0,VALID,25.1167,VALID,7,VALID,0.0871094,
2010-08-24, 03:20:05,VALID,1008.51,VALID,0,VALID,102.292,VALID,0,VALID,25.1167,VALID,32,VALID,0.191797,
2010-08-24, 03:21:05,VALID,1008.53,VALID,0,VALID,102.307,VALID,0,VALID,25.0973,VALID,32,VALID,0,
2010-08-24, 03:22:05,VALID,1008.53,VALID,0,VALID,102.299,VALID,0,VALID,25.0759,VALID,32,VALID,0,
2010-08-24, 03:23:05,VALID,1008.57,VALID,0,VALID,102.33,VALID,0,VALID,25.0759,VALID,345,VALID,0.164844,
2010-08-24, 03:24:05,VALID,1008.56,VALID,0,VALID,102.33,VALID,0,VALID,25.0973,VALID,345,VALID,0.0449219,
2010-08-24, 03:25:05,VALID,1008.58,VALID,0,VALID,102.338,VALID,0,VALID,25.0973,VALID,345,VALID,0,
2010-08-24, 03:26:05,VALID,1008.59,VALID,0,VALID,102.353,VALID,0,VALID,25.0973,VALID,345,VALID,0.111328,
2010-08-24, 03:27:05,VALID,1008.6,VALID,0,VALID,102.345,VALID,0,VALID,25.0973,VALID,345,VALID,0.114844,
2010-08-24, 03:28:05,VALID,1008.58,VALID,0,VALID,102.36,VALID,0,VALID,25.0778,VALID,345,VALID,0.195703,
2010-08-24, 03:29:05,VALID,1008.6,VALID,0,VALID,102.414,VALID,0,VALID,25.0583,VALID,345,VALID,0.0726563,
2010-08-24, 03:30:05,VALID,1008.62,VALID,0,VALID,102.444,VALID,0,VALID,25.0388,VALID,345,VALID,0,
2010-08-24, 03:31:05,VALID,1008.63,VALID,0,VALID,102.49,VALID,0,VALID,25.0388,VALID,345,VALID,0.0367187,
2010-08-24, 03:32:05,VALID,1008.66,VALID,0,VALID,102.536,VALID,0,VALID,25.0193,VALID,345,VALID,0,
2010-08-24, 03:33:05,VALID,1008.64,VALID,0,VALID,102.551,VALID,0,VALID,25.0407,VALID,345,VALID,0,
2010-08-24, 03:34:05,VALID,1008.65,VALID,0,VALID,102.544,VALID,0,VALID,25.0193,VALID,345,VALID,0,
2010-08-24, 03:35:05,VALID,1008.65,VALID,0,VALID,102.574,VALID,0,VALID,25.0193,VALID,345,VALID,0,
2010-08-24, 03:36:05,VALID,1008.65,VALID,0,VALID,102.627,VALID,0,VALID,25.0193,VALID,345,VALID,0,
2010-08-24, 03:37:05,VALID,1008.66,VALID,0,VALID,102.635,VALID,0,VALID,24.9998,VALID,345,VALID,0,
2010-08-24, 03:38:05,VALID,1008.65,VALID,0,VALID,102.658,VALID,0,VALID,24.9998,VALID,345,VALID,0,
2010-08-24, 03:39:05,VALID,1008.63,VALID,0,VALID,102.673,VALID,0,VALID,24.9998,VALID,345,VALID,0,
2010-08-24, 03:40:05,VALID,1008.61,VALID,0,VALID,102.673,VALID,0,VALID,25.0193,VALID,345,VALID,0,
2010-08-24, 03:41:05,VALID,1008.58,VALID,0,VALID,102.666,VALID,0,VALID,24.9979,VALID,345,VALID,0,
2010-08-24, 03:42:05,VALID,1008.57,VALID,0,VALID,102.681,VALID,0,VALID,25.0193,VALID,345,VALID,0,
2010-08-24, 03:43:05,VALID,1008.56,VALID,0,VALID,102.65,VALID,0,VALID,25.0388,VALID,345,VALID,0,
2010-08-24, 03:44:05,VALID,1008.55,VALID,0,VALID,102.658,VALID,0,VALID,25.0174,VALID,345,VALID,0,
2010-08-24, 03:45:05,VALID,1008.56,VALID,0,VALID,102.65,VALID,0,VALID,25.0388,VALID,345,VALID,0,
2010-08-24, 03:46:05,VALID,1008.64,VALID,0,VALID,102.673,VALID,0,VALID,25.0388,VALID,345,VALID,0,
2010-08-24, 03:47:05,VALID,1008.63,VALID,0,VALID,102.681,VALID,0,VALID,25.0388,VALID,345,VALID,0,
2010-08-24, 03:48:05,VALID,1008.59,VALID,0,VALID,102.673,VALID,0.105969,VALID,25.0193,VALID,345,VALID,0,
2010-08-24, 03:49:05,VALID,1008.61,VALID,0,VALID,102.673,VALID,0.105969,VALID,24.9979,VALID,345,VALID,0,
2010-08-24, 03:50:05,VALID,1008.62,VALID,0,VALID,102.696,VALID,0,VALID,25.0174,VALID,345,VALID,0,
2010-08-24, 03:51:05,VALID,1008.6,VALID,0,VALID,102.696,VALID,0,VALID,24.9998,VALID,345,VALID,0,